Theta_e
332 326 328 323 311 312 311 312 314 312 313 318 320 327 326 328 324 323 350 349 348 354 362 362 363 365 366 365 364 363 362 361 361 361 361 361 361 362 362 362 361 359 357 354 351 350 351 351 353
324 324 325 320 308 307 310 313 312 314 317 319 319 323 325 325 334 341 344 349 352 357 363 360 363 364 364 365 364 362 362 361 361 361 361 361 361 362 362 362 361 358 355 352 350 349 350 351 353
322 323 317 313 309 307 309 312 313 315 318 319 318 325 325 325 333 342 349 350 354 358 361 361 362 363 364 364 363 362 362 361 362 362 361 361 361 361 361 361 360 357 353 350 347 347 346 347 349
321 321 319 308 306 309 309 313 314 314 318 320 320 317 326 335 336 348 350 350 353 355 358 361 361 362 362 363 363 362 362 362 362 362 361 361 361 361 360 360 359 357 353 350 348 347 346 344 342
320 318 309 307 307 309 311 314 315 313 315 317 319 316 321 341 351 352 351 351 353 354 356 362 361 361 362 362 362 362 362 361 362 362 361 361 361 360 359 359 359 357 354 351 347 347 347 346 344
312 314 306 305 306 309 313 315 315 314 315 316 316 317 321 330 341 351 353 354 353 353 357 361 360 361 360 361 360 360 360 360 361 360 360 360 360 359 359 358 357 356 354 352 348 348 347 346 346
309 308 305 307 307 306 311 316 313 313 314 315 317 314 321 323 328 348 354 356 353 354 355 361 358 359 360 359 359 359 359 359 359 359 358 358 358 358 358 357 357 355 354 351 349 348 347 346 343
311 308 304 306 305 305 312 313 315 313 312 318 318 315 317 321 330 340 351 354 352 352 352 358 359 355 354 355 359 358 358 358 358 358 358 358 358 357 357 355 355 354 352 351 350 348 347 345 344
312 304 301 301 302 305 311 311 315 315 313 314 316 316 320 322 323 330 342 349 350 348 351 355 356 356 354 352 354 357 357 358 358 358 358 355 353 354 355 351 355 353 352 350 349 348 347 346 344
307 303 303 307 307 306 308 309 309 308 309 310 312 316 318 320 321 321 328 339 347 347 348 352 355 356 354 351 355 354 351 352 352 352 356 354 352 350 346 350 354 353 351 350 350 349 347 343 337
307 302 307 307 309 309 308 308 310 307 306 310 310 313 316 317 319 319 321 332 340 347 348 350 357 358 356 352 353 352 350 350 351 352 354 356 349 350 347 346 348 347 349 343 343 342 340 339 342
302 306 307 307 308 308 306 308 306 308 308 312 312 313 314 315 317 319 321 328 337 344 347 351 355 359 360 354 352 353 349 348 347 348 355 355 349 349 347 343 343 345 343 343 343 340 343 346 350
302 304 305 307 306 307 307 305 305 306 310 312 313 313 313 315 317 320 322 323 327 341 347 350 354 359 362 361 353 354 353 349 350 350 352 352 349 351 347 345 344 344 343 344 343 342 343 348 352
304 304 304 305 305 306 304 304 306 307 310 310 311 312 313 314 316 318 321 324 326 330 343 352 354 358 360 358 362 358 358 352 351 349 351 355 350 352 345 346 346 344 343 342 342 342 342 348 351
304 300 303 304 305 304 306 302 303 307 308 308 309 311 312 313 315 316 319 322 325 331 343 351 355 358 360 358 358 359 355 354 351 350 358 357 357 354 353 345 345 344 346 347 346 345 347 350 350
301 301 298 304 303 304 303 298 304 307 307 307 308 309 310 312 314 317 318 321 324 328 333 344 350 355 358 360 358 358 355 354 352 353 353 357 358 357 353 347 345 346 348 345 342 341 342 344 346
300 295 296 298 303 302 302 299 304 308 308 307 309 310 310 312 314 317 319 320 322 325 328 333 348 353 356 360 358 359 362 356 353 353 353 356 355 355 354 349 348 353 347 345 343 342 342 340 343
296 295 296 296 301 302 301 301 305 307 307 308 308 309 310 311 313 317 318 320 322 326 330 333 340 354 358 358 358 356 354 355 355 354 353 359 357 353 355 351 354 354 348 346 346 350 344 342 340
298 297 296 299 302 301 300 301 304 307 307 307 309 310 311 312 315 317 318 320 323 326 330 333 335 354 356 353 352 352 350 352 352 355 358 356 355 353 353 347 352 355 351 350 355 349 347 339 344
298 296 297 300 302 301 300 300 304 306 307 308 308 309 310 312 313 315 317 319 321 324 329 334 335 342 353 352 356 354 353 351 351 351 357 356 356 356 352 344 348 355 349 354 354 353 341 340 343
298 296 297 297 300 302 300 299 302 306 307 308 309 311 311 312 312 314 316 317 319 321 324 327 334 339 346 353 352 354 354 351 348 348 350 354 355 356 358 355 354 355 349 345 351 351 348 338 344
295 301 299 297 297 293 301 291 300 303 304 306 308 310 310 311 313 314 315 317 319 319 321 323 332 336 338 350 346 352 346 343 347 349 349 351 354 352 352 355 353 355 350 349 350 350 349 346 344
298 301 299 299 297 297 297 294 299 303 301 305 307 307 309 311 312 312 314 316 318 320 320 323 329 332 337 343 352 347 350 345 348 348 355 355 355 354 350 352 352 353 351 354 356 353 353 350 346
302 300 300 300 298 291 296 295 296 300 301 304 306 307 307 310 311 312 315 317 317 320 321 323 325 330 334 337 346 353 353 353 346 349 348 348 349 350 351 349 352 353 353 351 351 351 351 347 343
301 298 291 290 291 290 299 295 297 302 304 304 303 305 308 310 310 311 313 314 317 319 321 323 324 324 330 334 338 346 354 358 356 354 349 350 347 347 354 356 357 355 357 356 354 350 346 346 342
300 299 292 285 288 291 297 292 297 303 306 306 305 307 308 309 310 310 312 315 316 318 320 322 324 325 326 330 335 341 348 348 349 353 349 348 348 357 359 357 357 356 356 355 356 353 352 349 345
298 295 301 294 295 291 294 298 302 303 302 302 303 305 306 308 309 310 312 315 316 318 320 321 324 326 326 328 333 338 345 349 349 355 354 350 357 350 352 354 353 353 353 353 353 349 350 350 349
299 302 294 294 285 284 291 292 293 298 299 300 301 303 306 307 308 310 312 314 316 318 320 322 325 325 326 327 332 336 343 346 347 348 348 347 347 345 345 346 348 350 350 351 351 349 350 349 349
297 295 296 296 293 286 285 290 299 297 300 300 302 304 305 306 307 309 311 314 316 318 319 320 324 324 325 328 331 333 334 334 335 334 334 336 338 337 336 338 339 340 343 346 347 346 344 344 346
298 296 296 291 289 292 290 290 302 300 301 301 302 304 305 308 309 310 311 314 315 316 317 319 320 322 323 325 329 328 328 329 332 332 332 334 334 335 333 334 335 336 338 342 340 339 337 337 336
Wind_Speed
17 10 6 6 8 7 10 6 2 3 2 4 5 6 9 6 8 6 4 10 15 17 19 19 15 13 11 12 14 16 16 17 18 17 17 17 16 15 13 12 12 12 12 11 11 11 10 11 11
12 11 7 3 9 9 8 5 5 5 6 2 1 4 3 5 4 5 9 10 17 18 17 20 16 15 13 13 13 16 18 17 17 16 17 16 16 15 14 13 13 12 12 12 11 11 10 10 10
10 8 9 5 8 11 3 7 5 5 4 5 1 3 3 5 6 3 10 13 17 17 18 18 16 16 15 13 13 15 17 17 17 16 16 15 15 14 13 13 13 12 12 12 12 11 10 10 9
5 7 5 10 10 3 4 8 3 1 4 7 3 5 5 8 5 6 14 13 16 16 17 19 16 15 16 15 14 13 15 15 16 16 16 15 14 13 12 11 11 11 11 11 11 10 9 8 7
5 5 10 11 12 2 6 2 3 4 1 5 6 4 7 14 10 7 11 10 14 15 15 17 15 15 15 15 15 14 13 13 13 15 15 15 14 12 12 11 11 10 10 10 10 9 9 8 8
8 6 11 14 13 7 7 6 7 5 3 4 2 7 11 10 10 4 6 7 12 14 14 16 14 15 14 15 14 15 14 13 13 12 13 13 13 13 12 11 10 9 9 9 9 8 7 6 6
12 10 16 16 11 8 10 6 9 6 7 2 8 7 6 13 12 3 4 6 10 13 14 15 17 15 14 14 14 13 14 13 11 10 9 10 10 10 11 11 9 8 7 7 7 8 7 7 7
8 7 17 13 12 18 6 8 2 7 5 5 4 2 1 11 10 1 5 7 11 13 16 16 16 18 17 15 12 13 14 13 12 10 9 8 8 8 9 8 8 9 8 7 7 7 7 7 7
5 9 13 16 13 12 6 11 6 5 12 11 8 11 10 12 10 4 5 9 10 12 15 15 17 17 17 16 14 12 13 12 12 12 9 10 10 12 13 12 12 9 8 8 8 8 8 8 8
11 12 16 8 11 11 9 10 9 9 13 13 14 12 11 11 10 10 8 10 12 13 15 14 14 15 16 13 14 15 13 12 13 13 14 11 12 10 11 11 10 10 9 8 8 9 8 8 8
11 14 13 7 12 11 13 12 10 11 14 13 12 12 13 12 11 11 11 12 12 12 11 14 14 14 15 13 11 9 9 10 10 15 13 13 11 8 8 7 8 9 10 8 10 10 9 9 6
9 14 10 10 9 13 15 11 13 12 12 12 14 12 12 13 13 12 11 10 12 13 13 14 15 14 15 11 10 12 11 11 10 13 15 10 8 9 9 8 9 9 8 10 8 6 6 6 7
14 10 11 12 12 13 11 16 14 14 8 12 9 11 12 11 10 10 10 10 10 13 15 16 16 15 12 13 12 12 11 12 12 12 14 12 12 8 9 9 8 8 8 8 8 7 6 7 8
7 9 10 9 12 11 12 15 14 7 6 9 12 11 12 10 10 9 8 8 9 12 14 15 17 17 16 15 14 10 9 12 12 12 12 15 11 9 10 10 9 8 8 7 7 6 6 7 6
6 10 12 13 13 12 9 15 17 10 6 7 8 8 7 8 10 8 8 8 8 8 10 13 15 16 18 19 17 12 13 13 13 12 13 14 13 11 11 9 9 8 6 7 5 6 6 6 6
10 8 12 8 7 7 8 11 7 1 7 8 9 8 8 7 8 8 9 9 8 7 9 11 12 16 18 17 15 13 14 13 13 13 13 17 16 13 13 9 9 9 8 8 8 7 7 7 6
11 12 10 6 7 5 10 8 6 8 10 10 10 11 10 9 8 8 10 9 9 8 8 10 12 16 17 16 14 14 15 14 14 14 14 17 18 17 12 10 9 10 8 9 9 7 7 7 6
12 12 8 10 7 9 11 15 13 8 11 10 11 10 12 13 12 10 10 12 12 11 10 10 11 15 16 13 13 13 13 13 13 14 14 16 14 14 13 9 9 11 9 10 9 9 9 8 7
7 8 11 9 8 12 14 15 13 13 14 15 14 12 12 13 13 12 12 12 12 14 12 12 11 13 12 12 13 14 15 14 14 12 16 18 16 18 15 13 13 12 13 11 10 9 11 9 8
11 13 13 11 11 10 15 18 15 15 16 15 12 13 13 12 14 14 16 16 14 14 14 15 14 14 14 13 11 13 13 14 14 13 14 16 17 18 17 12 11 14 9 11 12 12 10 8 7
14 14 12 13 13 13 18 20 20 15 13 11 13 11 12 12 12 14 16 17 17 15 15 14 15 15 15 18 12 12 12 11 13 14 13 15 18 19 18 18 14 12 8 9 10 11 12 9 8
14 12 12 12 13 13 3 14 17 13 9 9 12 12 8 12 13 14 16 17 18 17 17 17 14 15 15 17 16 18 16 16 16 14 14 14 20 19 19 17 16 12 11 10 10 10 11 9 9
13 5 11 13 16 18 18 14 14 7 14 13 8 7 10 10 11 14 14 16 18 17 16 16 14 15 16 16 18 16 19 16 13 13 15 16 16 19 19 18 16 15 11 10 11 11 11 10 8
10 11 16 16 13 17 20 19 13 8 3 12 12 12 9 11 15 16 16 16 15 16 17 16 15 15 15 16 19 21 20 19 15 15 13 12 14 15 17 18 16 14 12 14 13 13 13 11 9
12 14 13 16 15 15 13 9 12 13 10 12 13 15 11 13 14 16 17 17 13 15 17 16 16 17 15 16 18 21 22 19 20 14 13 12 13 13 16 16 15 14 15 14 13 14 14 13 12
17 15 13 17 15 14 11 12 8 2 10 10 8 6 8 12 15 17 19 19 18 15 17 18 18 18 17 16 18 18 20 16 16 16 13 13 11 10 12 16 14 14 13 12 11 10 11 14 13
9 12 12 18 18 18 16 21 18 11 7 8 5 7 11 13 15 18 18 17 18 17 17 18 18 18 16 16 14 17 17 17 16 16 12 10 10 9 13 13 14 14 13 12 12 10 12 11 11
10 8 9 8 9 17 10 13 13 7 6 5 11 15 11 14 17 16 16 17 16 13 14 13 15 17 14 14 12 13 9 11 12 10 13 13 10 7 11 12 11 11 11 11 11 11 11 11 10
9 11 11 12 11 10 16 8 7 2 13 14 14 11 17 18 18 16 15 15 15 11 13 13 12 12 10 7 7 10 11 13 12 12 11 11 14 10 10 11 11 10 10 10 9 8 9 11 10
12 17 15 9 10 10 13 15 17 7 8 5 13 16 17 15 14 13 13 13 13 12 12 12 11 10 8 9 4 5 7 9 7 6 11 10 10 13 12 11 10 11 11 11 10 10 9 9 9
Wind_Direction
287 310 282 240 237 238 233 166 70 84 184 6 313 300 8 354 346 16 97 143 136 149 150 159 145 147 149 152 158 155 155 157 155 157 156 157 150 147 148 143 140 142 144 136 132 132 134 140 143
306 309 232 259 253 214 188 113 128 59 39 28 161 222 241 64 21 84 130 147 157 148 156 162 153 150 153 156 160 159 157 158 156 159 160 158 151 152 150 149 148 153 148 143 144 143 149 153 154
273 283 270 249 243 246 177 172 107 52 51 41 134 355 15 38 57 44 102 149 156 157 162 156 159 151 151 157 159 163 157 157 157 161 162 158 155 155 155 154 154 158 156 155 154 153 159 164 164
273 208 213 247 222 225 326 137 45 15 97 46 109 74 119 44 6 3 141 152 158 165 165 140 158 154 152 156 158 161 156 159 160 163 164 160 158 156 158 156 158 162 164 163 162 157 160 164 164
229 253 251 235 236 173 231 259 299 311 8 40 5 76 78 59 51 94 142 161 169 167 170 158 162 157 157 159 159 155 156 159 166 166 165 161 158 159 161 161 166 170 168 168 168 163 162 162 165
225 273 236 230 211 203 244 249 271 263 284 23 335 319 74 62 36 91 155 177 177 167 171 161 167 162 161 163 164 159 158 164 167 171 165 163 161 162 163 167 171 174 173 174 173 170 166 167 172
245 224 246 247 242 230 233 259 252 294 265 131 338 299 89 42 20 74 181 175 182 169 177 166 177 177 166 167 165 167 162 162 164 162 167 163 166 170 167 168 172 177 180 179 179 178 175 177 189
256 258 251 241 238 245 204 232 240 265 294 337 291 276 42 19 5 360 200 187 189 184 184 177 183 182 186 181 174 172 170 169 159 162 163 168 170 177 173 166 181 182 186 188 191 192 192 194 200
239 240 238 228 238 241 247 237 182 288 272 278 282 292 304 326 323 311 231 198 200 196 195 190 187 185 188 186 180 180 180 176 168 167 171 167 203 190 182 198 158 193 196 196 202 207 206 209 217
218 229 238 235 240 254 249 255 274 282 273 270 272 269 275 295 297 300 262 224 213 205 204 198 197 193 194 189 181 198 194 203 203 196 191 210 210 203 214 182 167 190 201 210 214 219 223 225 235
205 241 241 230 245 262 269 272 261 262 269 271 288 293 284 287 283 280 276 254 215 220 214 207 197 198 205 200 187 191 195 196 202 209 202 205 198 203 211 197 197 204 197 212 200 205 227 232 261
220 236 257 258 260 255 264 277 262 257 271 291 280 283 286 276 269 266 271 246 224 211 216 217 200 202 209 205 198 195 198 195 197 200 201 207 212 196 199 216 201 204 195 215 213 213 237 246 246
227 222 232 244 254 265 281 270 274 272 274 268 274 282 276 273 272 268 262 259 271 218 218 212 211 207 200 225 203 209 203 196 198 194 199 207 208 201 200 200 215 204 212 206 213 225 221 222 230
189 236 241 247 251 252 255 268 259 251 262 262 279 273 277 276 279 292 280 269 268 260 227 216 218 206 200 212 220 205 207 199 203 199 198 206 210 202 208 201 209 213 220 219 233 223 238 231 245
195 236 223 244 250 251 281 262 250 255 276 265 275 288 285 287 295 294 304 292 294 262 244 228 217 218 212 209 214 211 206 212 208 208 198 193 199 206 218 212 209 208 216 236 238 245 233 252 243
227 242 247 167 217 208 224 264 136 253 213 273 281 278 276 278 300 310 319 314 315 279 268 245 228 217 217 221 213 214 216 211 210 207 210 204 200 208 204 209 211 211 206 208 221 226 239 242 252
200 253 208 233 212 239 219 278 150 269 285 285 278 275 267 273 278 296 302 304 305 293 275 258 234 232 222 217 226 222 218 218 216 210 209 205 209 201 210 214 206 210 214 217 219 220 234 251 246
236 223 227 250 173 217 256 263 266 261 259 267 272 265 267 270 270 281 286 296 295 292 281 257 241 220 225 220 217 224 224 219 223 214 213 203 204 199 201 217 216 200 221 229 214 220 207 234 255
270 264 259 256 266 267 265 270 273 270 272 274 272 269 268 270 279 276 280 284 286 292 285 272 255 235 216 214 212 217 221 219 215 221 211 206 202 201 205 178 201 224 200 215 214 195 222 216 218
239 253 253 263 260 272 270 269 269 265 269 269 276 278 278 295 303 314 316 312 298 289 288 294 273 253 228 222 215 221 219 219 221 216 209 209 206 205 207 207 219 206 218 211 207 207 206 212 208
237 251 267 275 290 275 264 266 255 236 227 261 264 270 283 298 317 310 304 301 297 287 280 279 281 276 251 239 225 224 228 225 215 219 211 210 208 208 207 201 211 208 202 214 212 214 227 194 184
250 233 250 270 271 276 146 288 287 264 266 242 253 264 312 311 315 317 317 314 306 291 288 284 268 267 255 246 235 228 222 217 219 211 213 210 210 214 207 210 204 204 200 207 204 209 218 222 178
257 292 265 278 276 281 267 262 267 245 222 258 267 279 297 313 313 315 320 319 312 302 286 277 270 265 262 255 228 226 226 229 225 215 211 208 205 211 208 203 203 206 209 197 202 187 199 189 167
270 268 257 256 263 259 263 253 267 258 306 292 306 311 299 309 309 313 320 316 318 316 310 301 280 264 260 252 243 227 230 226 226 212 207 201 208 199 201 202 202 206 206 210 208 204 192 193 197
240 258 266 261 247 254 259 258 271 294 286 294 313 305 314 311 320 326 322 319 320 328 323 313 292 272 260 249 243 235 229 227 226 213 210 208 204 199 185 202 200 202 210 209 206 207 220 221 215
270 251 259 273 271 285 296 259 263 110 287 291 313 292 301 325 331 327 327 326 314 316 323 316 312 288 264 253 244 240 231 225 220 211 218 211 209 199 196 190 200 206 204 215 213 221 218 218 215
259 240 285 285 281 270 268 259 250 213 258 263 239 273 297 313 314 318 322 325 319 311 317 316 311 300 280 261 245 243 231 230 228 216 199 213 213 190 191 190 193 197 205 208 211 225 224 228 225
259 343 243 231 272 270 257 287 280 243 268 277 298 297 299 302 309 313 313 321 320 312 318 317 318 308 294 265 243 236 218 224 219 195 185 184 174 181 174 188 183 192 195 203 209 217 219 226 223
207 229 235 288 263 274 286 270 95 297 280 292 291 288 301 315 312 312 316 320 315 302 326 345 331 328 315 292 243 228 187 186 183 181 180 171 166 175 177 181 175 177 182 191 193 215 194 210 211
258 278 269 236 258 236 256 264 277 317 313 299 276 287 311 311 301 305 315 319 328 324 325 322 0 5 1 338 290 184 182 173 166 180 165 164 159 178 176 172 173 176 175 172 182 189 181 179 185